Regional Weather Roundup
Issued by NWS

Home | Current Version | Previous Version | Graphics & Text | Print | Product List | Glossary On
Versions: 1 2 3 4 5 6 7 8 9 10 11 12 13 14 15 16 17 18 19 20 21 22 23 24 25 26 27 28 29 30 31 32 33 34 35 36 37 38 39 40 41 42 43 44 45 46 47 48 49 50
000
ASUS43 KMKX 200800
RWRWI

WISCONSIN REGIONAL WEATHER ROUNDUP
NATIONAL WEATHER SERVICE MILWAUKEE/SULLIVAN WI
200 AM CST SAT DEC 20 2014

NOTE: "FAIR" INDICATES FEW OR NO CLOUDS BELOW 12,000 FEET WITH NO
SIGNIFICANT WEATHER AND/OR OBSTRUCTIONS TO VISIBILITY.

WIZ001-002-006>008-014>016-023>028-200900-
NORTHWEST WISCONSIN

CITY           SKY/WX    TMP DP  RH WIND       PRES   REMARKS
SUPERIOR ARPT  CLOUDY    27  24  89 S5        30.16F WCI  22
ASHLAND        CLOUDY    26  22  84 S5        30.19S WCI  20
HAYWARD        CLOUDY    25  21  85 S6        30.16F WCI  18
SIREN          CLOUDY    28  23  84 S7        30.16S WCI  20
CUMBERLAND     CLOUDY    27  23  86 S6        30.16S WCI  20
RICE LAKE      CLOUDY    27  23  84 SE7       30.19S WCI  20
CHETEK         CLOUDY    26  23  86 SE5       30.19S WCI  21
LADYSMITH      CLOUDY    26  23  91 SE3       30.20S
EAU CLAIRE     CLOUDY    28  21  75 S6        30.20S WCI  22
MENOMONIE      CLOUDY    28  24  82 SE5       30.19F WCI  23
NEW RICHMOND   CLOUDY    28  25  87 S8        30.17S WCI  20
OSCEOLA        CLOUDY    29  25  85 SE9       30.19S WCI  20
$$

WIZ003>005-009-010-017-018-200900-
NORTH CENTRAL WISCONSIN

CITY           SKY/WX    TMP DP  RH WIND       PRES   REMARKS
MANITOWISH WTR CLOUDY    22  21  98 S3        30.16S
ARBOR VITAE    CLOUDY    23  21  91 CALM      30.16S
WOODRUFF       CLOUDY    23  21  91 CALM      30.16S
RHINELANDER    CLOUDY    20  18  92 CALM      30.19R
EAGLE RIVER    CLOUDY    19  19  98 CALM      30.17S FOG
LAND O LAKES   CLOUDY    19  18  95 S3        30.17F
PHILLIPS       CLOUDY    23  21  91 S3        30.16S
TOMAHAWK       CLOUDY    22  20  92 CALM      30.19R
MEDFORD        CLOUDY    23  21  93 S6        30.19S WCI  15
MERRILL        CLOUDY    23  21  91 S3        30.20F
$$

WIZ029-030-035-036-043>047-200900-
CENTRAL WISCONSIN

CITY           SKY/WX    TMP DP  RH WIND       PRES   REMARKS
WAUSAU         CLOUDY    24  21  88 S6        30.21S WCI  17
MOSINEE        CLOUDY    23  23 100 S7        30.23S WCI  15
MARSHFIELD     CLOUDY    24  21  88 S7        30.21S WCI  16
STEVENS POINT  CLOUDY    22  19  89 S5        30.24S WCI  16
WAUPACA        CLOUDY    26  22  85 CALM      30.26S
WAUTOMA        NOT AVBL
WISC RAPIDS    CLOUDY    23  19  85 S3        30.25S
CAMP DOUGLAS   CLOUDY    25  25 100 SE5       30.23F WCI  19
$$

WIZ011>013-019>022-031-037>040-048>050-200900-
NORTHEAST WISCONSIN

CITY           SKY/WX    TMP DP  RH WIND       PRES   REMARKS
ANTIGO         CLOUDY    20  19  96 S5        30.20S WCI  13
SHAWANO        PTCLDY    18  15  89 CALM      30.26S
OCONTO         PTCLDY    13  12  96 CALM      30.27S
STURGEON BAY   CLOUDY    21  18  86 CALM      30.28S
GREEN BAY      MOCLDY    21  19  92 CALM      30.27S
MANITOWOC      NOT AVBL
APPLETON       PTCLDY    21  18  86 CALM      30.25F
CLINTONVILLE   PTCLDY    18  16  93 CALM      30.25F
OSHKOSH        PTCLDY    20  17  88 CALM      30.26S
$$

WIZ032>034-041-042-053>061-200900-
SOUTHWEST WISCONSIN

CITY           SKY/WX    TMP DP  RH WIND       PRES   REMARKS
LA CROSSE      CLOUDY    30  22  72 S7        30.23S WCI  23
SPARTA         CLOUDY    28  22  78 CALM      30.24S
VIROQUA        CLOUDY    27  23  87 S6        30.20F WCI  20
BOSCOBEL       CLOUDY    29  22  75 CALM      30.26S
PRAIRIE DU CHI CLOUDY    29  22  76 CALM      30.25S
PLATTEVILLE    CLOUDY    28  24  88 CALM      30.25S
$$

WIZ056-057-062-063-064-067-068-200900-
SOUTH CENTRAL WISCONSIN

CITY           SKY/WX    TMP DP  RH WIND       PRES   REMARKS
REEDSBURG      CLOUDY    25  22  90 CALM      30.24S
BARABOO/DELLS  CLOUDY    25  22  88 CALM      30.24S
LONE ROCK      NOT AVBL
MINERAL POINT  CLOUDY    28  27  93 SE3       30.23S
MADISON        CLOUDY    26  21  81 S5        30.26R WCI  20
MIDDLETON      CLOUDY    28  23  82 S3        30.25S
WATERTOWN      CLOUDY    21  21  98 CALM      30.26S
MONROE         CLOUDY    27  27 100 CALM      30.24S
JANESVILLE     CLOUDY    28  23  80 CALM      30.26S
$$

WIZ051-052-058>065-066-070>072-200900-
SOUTHEAST WISCONSIN

CITY           SKY/WX    TMP DP  RH WIND       PRES   REMARKS
MILWAUKEE      CLOUDY    28  19  69 W5        30.27R WCI  23
WAUKESHA       CLOUDY    25  19  80 CALM      30.26S
MILWAUKEE/TIMM CLOUDY    27  21  80 CALM      30.27S
RACINE         CLOUDY    28  21  75 W3        30.28S
BURLINGTON     CLOUDY    25  20  83 CALM      30.26S
KENOSHA        CLOUDY    27  21  78 W3        30.27R
FOND DU LAC    PTCLDY    20  16  84 CALM      30.26S
SHEBOYGAN      CLOUDY    27  21  78 NW3       30.26R
WEST BEND      CLOUDY    23  19  86 CALM      30.25S
JUNEAU         CLOUDY    21  19  91 CALM      30.27R
$$

LSZ147-162-200900-
LAKE SUPERIOR

STATION/POSITION TIME  TEMP    WIND        PRES    WAVE
                       AIR SEA DIR/SP/G            HT/PER
                 (UTC) (F)     (DEG/KT/KT) (MB)    (FT/S)
DEVILS ISLAND    0700   28     170/  4/  5 1023.2F
PORT WING        0700   27     180/  4/  5 1022.0
SAXON HARBOR     0700   27     190/  3/  8 1022.0F
$$

LMZ867-665-643>646-200900-
LAKE MICHIGAN

STATION/POSITION TIME  TEMP    WIND        PRES    WAVE
                       AIR SEA DIR/SP/G            HT/PER
                 (UTC) (F)     (DEG/KT/KT) (MB)    (FT/S)
CHAMBERS ISLAND  0700   25     210/  3/  5 1025.1R
NORTHPORT PIER   0726   22     200/  3/  5 1025.1S
ALGOMA LAKESHORE 0659          340/  7/  8   N/A
KEWAUNEE LAKESHO 0700   27     300/  3/  5 1024.0S
SHEBOYGAN LAKESH 0700   29 34  290/  8/  9 1025.6F
PORT WASHINGTON  0700   28     300/  3/  5 1025.4
MILWAUKEE LAKESH 0700   29     230/  3/  4   N/A
KENOSHA   LAKESH 0700   28     290/  2/  3 1025.1R
$$

TC  - TEMPERATURE IN CELSIUS
VSB - VISIBILITY IN STATUTE MILES
WCI - WIND CHILL INDEX
HX  - HEAT INDEX




USA.gov is the U.S. government's official web portal to all federal, state and local government web resources and services.